Total_Precipitation_Accumulation
1.36 1.37 1.34 1.35 1.43 1.41 1.33 1.33 1.35 1.33 1.31 1.39 1.49 1.57 1.59 1.58 1.59 1.60 1.57 1.55 1.55 1.51 1.47 1.47 1.46 1.45 1.48 1.45 1.45 1.49 1.53 1.59 1.55 1.14 0.93 0.93 1.03 1.06 1.08 1.00 0.93 0.93 0.94
1.24 1.32 1.26 1.23 1.36 1.39 1.30 1.24 1.24 1.21 1.12 1.14 1.21 1.27 1.30 1.28 1.28 1.32 1.35 1.38 1.40 1.42 1.38 1.37 1.35 1.35 1.37 1.39 1.43 1.46 1.48 1.48 1.49 1.31 1.05 0.96 0.96 0.97 0.98 0.98 0.93 0.88 0.82
1.16 1.21 1.17 1.13 1.19 1.24 1.26 1.23 1.19 1.20 1.13 1.04 1.03 1.07 1.10 1.10 1.08 1.07 1.08 1.13 1.17 1.20 1.26 1.27 1.26 1.30 1.34 1.33 1.34 1.33 1.31 1.31 1.34 1.30 1.11 0.94 0.89 0.87 0.93 0.94 0.90 0.86 0.79
1.04 1.05 1.03 1.03 1.04 1.04 1.06 1.08 1.06 1.04 1.06 1.05 0.96 0.92 0.95 0.99 1.02 1.03 1.02 1.02 1.03 1.08 1.14 1.19 1.21 1.23 1.23 1.24 1.28 1.27 1.24 1.24 1.23 1.25 1.16 1.04 0.97 0.93 0.98 1.01 1.00 0.92 0.88
0.98 1.01 1.00 0.96 0.93 0.93 0.93 0.90 0.89 0.91 0.95 0.98 0.94 0.90 0.88 0.90 0.95 0.99 1.00 1.01 1.00 1.02 1.05 1.08 1.15 1.27 1.30 1.25 1.21 1.20 1.22 1.27 1.29 1.33 1.26 1.10 0.96 0.92 0.93 0.89 0.93 0.95 0.95
0.87 0.94 0.95 0.93 0.89 0.88 0.85 0.83 0.81 0.82 0.88 0.94 0.95 0.95 0.95 0.97 1.16 1.15 1.06 1.03 1.05 1.03 1.00 0.98 1.00 1.08 1.11 1.15 1.14 1.11 1.17 1.27 1.38 1.40 1.26 1.05 0.86 0.78 0.77 0.84 0.94 1.02 0.98
0.68 0.77 0.82 0.82 0.83 0.84 0.83 0.85 0.90 0.92 0.94 1.00 1.06 1.08 1.08 1.15 1.27 1.17 1.13 1.01 1.01 1.03 1.00 0.93 0.89 0.87 0.92 0.86 0.93 0.99 1.01 1.11 1.16 1.07 0.99 0.85 0.77 0.75 0.86 0.97 0.96 0.95 0.83
0.69 0.73 0.74 0.77 0.82 0.86 0.93 1.00 1.07 1.14 1.16 1.20 1.25 1.27 1.27 1.27 1.28 1.17 1.15 0.99 0.93 0.91 0.86 0.79 0.75 0.70 0.70 0.75 0.78 0.85 0.82 0.80 0.82 0.78 0.75 0.72 0.70 0.74 0.87 1.02 1.05 1.05 0.92
0.70 0.77 0.80 0.86 0.95 1.00 1.10 1.18 1.20 1.27 1.28 1.24 1.23 1.21 1.19 1.16 1.15 1.06 0.99 0.86 0.83 0.78 0.73 0.69 0.67 0.63 0.72 0.80 0.77 0.79 0.69 0.63 0.70 0.78 0.83 0.83 0.88 0.88 0.88 1.02 1.16 1.26 1.15
0.80 0.89 0.91 0.94 1.01 1.04 1.06 1.07 1.07 1.06 1.04 1.01 0.98 0.94 0.91 0.87 0.90 0.86 0.84 0.75 0.71 0.67 0.64 0.63 0.70 0.67 0.75 0.82 0.73 0.70 0.65 0.58 0.58 0.64 0.70 0.75 0.75 0.79 0.89 0.87 1.03 1.31 1.22
0.93 0.98 0.96 0.92 0.94 0.93 0.86 0.80 0.77 0.75 0.71 0.69 0.68 0.67 0.65 0.63 0.65 0.67 0.72 0.69 0.68 0.66 0.63 0.61 0.62 0.75 0.80 0.82 0.74 0.63 0.67 0.70 0.66 0.67 0.68 0.68 0.69 0.72 0.75 0.75 0.83 1.17 1.40
0.84 0.81 0.75 0.67 0.64 0.62 0.60 0.59 0.57 0.58 0.59 0.58 0.56 0.55 0.52 0.51 0.54 0.57 0.62 0.68 0.69 0.65 0.63 0.58 0.61 0.77 0.79 0.77 0.73 0.72 0.78 0.76 0.65 0.69 0.73 0.71 0.67 0.64 0.64 0.68 0.71 0.78 0.92
0.56 0.54 0.51 0.48 0.47 0.47 0.49 0.50 0.51 0.51 0.54 0.54 0.54 0.55 0.54 0.50 0.53 0.60 0.62 0.68 0.72 0.68 0.64 0.68 0.70 0.74 0.74 0.70 0.71 0.76 0.73 0.66 0.66 0.70 0.70 0.67 0.64 0.65 0.68 0.74 0.78 0.79 0.79
0.45 0.46 0.45 0.46 0.44 0.44 0.47 0.48 0.51 0.54 0.55 0.55 0.55 0.55 0.54 0.52 0.52 0.55 0.60 0.64 0.70 0.71 0.71 0.70 0.68 0.66 0.69 0.69 0.68 0.67 0.66 0.67 0.72 0.74 0.72 0.69 0.70 0.74 0.79 0.81 0.85 0.85 0.90
0.46 0.48 0.50 0.50 0.47 0.46 0.48 0.49 0.53 0.57 0.63 0.66 0.63 0.60 0.60 0.58 0.56 0.65 0.69 0.67 0.69 0.72 0.76 0.71 0.66 0.64 0.64 0.64 0.62 0.61 0.63 0.68 0.74 0.73 0.78 0.82 0.82 0.81 0.80 0.80 0.89 0.94 0.98
0.46 0.47 0.50 0.52 0.51 0.49 0.47 0.47 0.52 0.56 0.60 0.62 0.62 0.61 0.58 0.60 0.63 0.68 0.69 0.71 0.75 0.82 0.84 0.72 0.63 0.60 0.60 0.59 0.60 0.62 0.64 0.67 0.72 0.80 0.85 0.89 0.92 0.92 0.88 0.82 0.86 0.96 0.97
0.47 0.48 0.50 0.51 0.53 0.53 0.50 0.49 0.51 0.54 0.59 0.59 0.58 0.59 0.59 0.63 0.65 0.65 0.68 0.71 0.77 0.85 0.81 0.66 0.56 0.53 0.54 0.58 0.62 0.66 0.67 0.66 0.74 0.87 0.94 0.98 1.02 1.00 0.97 0.93 0.88 0.90 0.89
0.45 0.49 0.51 0.50 0.54 0.57 0.57 0.55 0.52 0.52 0.53 0.52 0.54 0.60 0.61 0.62 0.64 0.65 0.71 0.78 0.79 0.76 0.68 0.62 0.59 0.58 0.60 0.64 0.67 0.70 0.73 0.75 0.81 0.86 0.92 0.99 1.09 1.13 1.07 0.97 0.93 0.94 0.95
0.45 0.49 0.51 0.51 0.54 0.58 0.60 0.61 0.58 0.55 0.54 0.53 0.52 0.57 0.64 0.67 0.68 0.68 0.70 0.70 0.67 0.64 0.60 0.60 0.63 0.67 0.71 0.73 0.75 0.77 0.81 0.85 0.84 0.89 0.92 0.97 1.07 1.19 1.10 0.96 0.97 0.97 1.03
0.46 0.55 0.59 0.59 0.59 0.60 0.60 0.62 0.61 0.58 0.57 0.55 0.54 0.58 0.66 0.74 0.69 0.63 0.62 0.61 0.60 0.59 0.60 0.66 0.70 0.75 0.81 0.85 0.87 0.88 0.89 0.86 0.87 0.92 0.93 0.95 1.01 1.13 1.14 1.04 1.03 1.06 1.01
0.46 0.52 0.59 0.57 0.56 0.58 0.61 0.63 0.64 0.64 0.61 0.56 0.54 0.60 0.76 0.80 0.72 0.64 0.62 0.65 0.68 0.67 0.67 0.72 0.75 0.80 0.85 0.90 0.92 0.92 0.90 0.85 0.84 0.94 0.98 0.98 1.02 1.07 1.03 1.08 1.09 1.10 1.11
0.44 0.46 0.50 0.52 0.54 0.59 0.65 0.65 0.65 0.66 0.63 0.59 0.56 0.59 0.71 0.69 0.63 0.62 0.62 0.64 0.67 0.70 0.73 0.81 0.81 0.78 0.86 0.98 1.06 1.07 0.97 0.83 0.80 0.91 1.00 0.99 1.02 1.06 1.09 1.16 1.15 1.14 1.11
0.44 0.46 0.47 0.48 0.52 0.59 0.62 0.60 0.61 0.62 0.63 0.62 0.60 0.60 0.61 0.61 0.58 0.57 0.59 0.61 0.64 0.66 0.69 0.76 0.81 0.77 0.76 0.88 1.03 1.23 1.26 1.03 0.91 1.06 1.30 1.30 1.20 1.18 1.20 1.18 1.09 1.09 1.00
0.43 0.46 0.48 0.50 0.52 0.56 0.58 0.58 0.57 0.58 0.59 0.59 0.60 0.60 0.60 0.60 0.59 0.58 0.60 0.61 0.63 0.64 0.66 0.72 0.77 0.76 0.77 0.85 0.93 1.00 1.09 1.21 1.46 1.65 1.74 1.77 1.49 1.23 1.17 1.12 1.03 1.00 0.98
0.44 0.47 0.50 0.54 0.56 0.57 0.57 0.56 0.54 0.54 0.55 0.56 0.57 0.57 0.57 0.58 0.57 0.57 0.58 0.60 0.62 0.62 0.61 0.65 0.72 0.75 0.75 0.78 0.84 0.87 0.95 1.17 1.51 1.75 1.74 1.62 1.38 1.18 1.14 1.10 1.02 0.99 0.98
0.48 0.50 0.53 0.55 0.57 0.58 0.58 0.56 0.53 0.53 0.55 0.54 0.53 0.54 0.55 0.56 0.54 0.53 0.54 0.55 0.57 0.56 0.56 0.57 0.63 0.69 0.73 0.73 0.69 0.76 0.93 1.05 1.10 1.17 1.44 1.55 1.38 1.15 1.12 1.17 1.06 1.02 0.99